Location: Dallas
(32.7833°N, 96.8000°W)
Time: 23:57:12
(UTC-06:00)

Envisat - Pass Details

Date: 27 January 2021
Orbit: 764 x 766 km, 98.1° (Epoch: 06 March)

Event Time Altitude Azimuth Distance (km) Brightness Sun altitude
Rises 05:43:46 0° 19° (NNE) 3,235 6.4 -21.4°
Reaches altitude 10° 05:46:09 10° 24° (NNE) 2,305 5.6 -20.9°
Maximum altitude 05:51:05 49° 100° (E) 975 3.9 -19.8°
Drops below altitude 10° 05:55:57 10° 175° (S) 2,290 5.6 -18.8°
Sets 05:58:19 0° 180° (S) 3,212 6.4 -18.3°
